sat.trackr.live / text

‹ back to catalog

ELEKTRO-L 5

NORAD 67756 · 2026-028A

PAYLOAD ACTIVE UNKNOWN

§ Identity

Operator
Country
CIS
Launch date
2026-02-12
Launch site
TYMSC
Launch vehicle
Mass (kg)
RCS (m²)

Purposes: comms

External: N2YO · Heavens-Above · Gunter

§ Orbital elements

Epoch: 2026-05-25T02:44:56.686272Z

Period
1,436.10 min
Inclination
0.2968°
Eccentricity
0.0001430
Mean motion
1.00271356 rev/d
Perigee alt
35,780.7 km
Apogee alt
35,792.7 km
Semi-major
42,164.9 km
B*
0.0000e+0
RAAN
303.9150°
Arg perigee
182.4372°
Mean anomaly
233.6584°
Rev number
102

§ Raw data

ELEKTRO-L 51 67756U 26028A   26145.11454498 -.00000100  00000+0  00000+0 0  99932 67756   0.2968 303.9150 0001430 182.4372 233.6584  1.00271356  1023

JSON: /api/v1/satellites/67756 · /tle

For live sub-satellite position, see the globe view (requires WebGL).

§ Visibility from observer

Set your observer location to see the next 7 days of passes ≥ 10°. The values pass through the URL so the page stays shareable.

No JS? Fill the form by hand. The geolocation button needs JavaScript.

§ Radio — SatNOGS DB

ModeDescriptionDownlinkUplink
FM Data relay satellite to satellite 465.000 MHz
BPSK LRIT Bandwidth 200 kHz Rate 64/128 kbps 1.691 GHz

2 transmitters · refreshed weekly from db.satnogs.org